Time,TemperatureF,DewpointF,PressureIn,WindDirection,WindDirectionDegrees,WindSpeedMPH,WindSpeedGustMPH,Humidity,HourlyPrecipIn,Conditions,Clouds,dailyrainin,SoftwareType,DateUTC
2013-05-13 00:02:00,45.4,31.0,30.05,WSW,248,5.0,5.0,57,0.00,,,0.00,Wunderground v.1.15,2013-05-13 05:02:00,
2013-05-13 00:04:00,45.4,31.0,30.05,WSW,248,5.0,5.0,57,0.00,,,0.00,Wunderground v.1.15,2013-05-13 05:04:00,
2013-05-13 00:06:00,45.4,31.0,30.05,WSW,248,5.0,5.0,57,0.00,,,0.00,Wunderground v.1.15,2013-05-13 05:06:00,
2013-05-13 00:07:00,45.3,31.0,30.05,WSW,248,5.0,5.0,57,0.00,,,0.00,Wunderground v.1.15,2013-05-13 05:07:00,
2013-05-13 00:08:00,45.3,31.4,30.05,WSW,248,5.0,5.0,58,0.00,,,0.00,Wunderground v.1.15,2013-05-13 05:08:00,
2013-05-13 00:09:00,45.3,31.4,30.05,WSW,248,5.0,5.0,58,0.00,,,0.00,Wunderground v.1.15,2013-05-13 05:09:00,
2013-05-13 00:11:00,45.2,31.3,30.05,WSW,248,5.0,5.0,58,0.00,,,0.00,Wunderground v.1.15,2013-05-13 05:11:00,
2013-05-13 00:13:00,45.2,31.3,30.05,WSW,248,5.0,6.0,58,0.00,,,0.00,Wunderground v.1.15,2013-05-13 05:13:00,
2013-05-13 00:16:00,45.2,31.7,30.05,WSW,248,5.0,6.0,59,0.00,,,0.00,Wunderground v.1.15,2013-05-13 05:16:00,
2013-05-13 00:17:00,45.1,31.6,30.05,WSW,248,5.0,6.0,59,0.00,,,0.00,Wunderground v.1.15,2013-05-13 05:17:00,
2013-05-13 00:20:00,44.9,31.4,30.05,WSW,248,5.0,5.0,59,0.00,,,0.00,Wunderground v.1.15,2013-05-13 05:20:00,
2013-05-13 00:22:00,44.8,31.3,30.05,WSW,248,5.0,5.0,59,0.00,,,0.00,Wunderground v.1.15,2013-05-13 05:22:00,
2013-05-13 00:23:00,44.8,31.3,30.05,WSW,248,4.0,5.0,59,0.00,,,0.00,Wunderground v.1.15,2013-05-13 05:23:00,
2013-05-13 00:24:00,44.9,31.4,30.05,WSW,248,5.0,5.0,59,0.00,,,0.00,Wunderground v.1.15,2013-05-13 05:24:00,
2013-05-13 00:27:00,44.9,31.4,30.05,WSW,248,5.0,6.0,59,0.00,,,0.00,Wunderground v.1.15,2013-05-13 05:27:00,
2013-05-13 00:29:00,44.9,31.4,30.05,WSW,248,5.0,7.0,59,0.00,,,0.00,Wunderground v.1.15,2013-05-13 05:29:00,
2013-05-13 00:30:00,45.0,31.5,30.05,WSW,247,6.0,6.0,59,0.00,,,0.00,Wunderground v.1.15,2013-05-13 05:30:00,
2013-05-13 00:31:00,45.0,31.5,30.05,WSW,246,6.0,7.0,59,0.00,,,0.00,Wunderground v.1.15,2013-05-13 05:31:00,
2013-05-13 00:33:00,44.9,31.4,30.05,WSW,245,6.0,7.0,59,0.00,,,0.00,Wunderground v.1.15,2013-05-13 05:33:00,
2013-05-13 00:36:00,45.0,31.5,30.05,WSW,245,6.0,7.0,59,0.00,,,0.00,Wunderground v.1.15,2013-05-13 05:36:00,
2013-05-13 00:37:00,45.0,31.5,30.05,WSW,245,6.0,7.0,59,0.00,,,0.00,Wunderground v.1.15,2013-05-13 05:37:00,
2013-05-13 00:40:00,44.8,31.8,30.05,WSW,245,5.0,5.0,60,0.00,,,0.00,Wunderground v.1.15,2013-05-13 05:40:00,
2013-05-13 00:41:00,44.8,31.8,30.05,WSW,245,5.0,5.0,60,0.00,,,0.00,Wunderground v.1.15,2013-05-13 05:41:00,
2013-05-13 00:42:00,44.7,31.7,30.05,WSW,245,5.0,5.0,60,0.00,,,0.00,Wunderground v.1.15,2013-05-13 05:42:00,
2013-05-13 00:46:00,44.4,31.8,30.05,WSW,245,4.0,5.0,61,0.00,,,0.00,Wunderground v.1.15,2013-05-13 05:46:00,
2013-05-13 00:47:00,44.3,31.7,30.05,WSW,245,4.0,5.0,61,0.00,,,0.00,Wunderground v.1.15,2013-05-13 05:47:00,
2013-05-13 00:48:00,44.3,31.7,30.06,WSW,245,4.0,5.0,61,0.00,,,0.00,Wunderground v.1.15,2013-05-13 05:48:00,
2013-05-13 00:50:00,44.2,31.6,30.05,WSW,245,4.0,4.0,61,0.00,,,0.00,Wunderground v.1.15,2013-05-13 05:50:00,
2013-05-13 00:52:00,44.1,31.5,30.05,WSW,245,4.0,4.0,61,0.00,,,0.00,Wunderground v.1.15,2013-05-13 05:52:00,
2013-05-13 00:55:00,44.0,31.8,30.05,WSW,245,4.0,4.0,62,0.00,,,0.00,Wunderground v.1.15,2013-05-13 05:55:00,
2013-05-13 00:57:00,44.0,31.8,30.06,WSW,245,4.0,4.0,62,0.00,,,0.00,Wunderground v.1.15,2013-05-13 05:57:00,
2013-05-13 00:58:00,43.9,32.1,30.06,WSW,245,4.0,4.0,63,0.00,,,0.00,Wunderground v.1.15,2013-05-13 05:58:00,
2013-05-13 00:59:00,43.8,31.6,30.05,WSW,245,4.0,4.0,62,0.00,,,0.00,Wunderground v.1.15,2013-05-13 05:59:00,
2013-05-13 01:01:00,43.8,32.0,30.06,WSW,245,3.0,4.0,63,0.00,,,0.00,Wunderground v.1.15,2013-05-13 06:01:00,
2013-05-13 01:04:00,43.6,32.2,30.06,WSW,245,3.0,4.0,64,0.00,,,0.00,Wunderground v.1.15,2013-05-13 06:04:00,
2013-05-13 01:06:00,43.6,32.2,30.06,WSW,245,3.0,4.0,64,0.00,,,0.00,Wunderground v.1.15,2013-05-13 06:06:00,
2013-05-13 01:07:00,43.5,32.1,30.06,WSW,245,3.0,4.0,64,0.00,,,0.00,Wunderground v.1.15,2013-05-13 06:07:00,
2013-05-13 01:08:00,43.4,32.0,30.06,WSW,245,3.0,4.0,64,0.00,,,0.00,Wunderground v.1.15,2013-05-13 06:08:00,
2013-05-13 01:09:00,43.4,32.0,30.05,WSW,245,3.0,4.0,64,0.00,,,0.00,Wunderground v.1.15,2013-05-13 06:09:00,
2013-05-13 01:13:00,43.3,32.3,30.05,WSW,245,2.0,3.0,65,0.00,,,0.00,Wunderground v.1.15,2013-05-13 06:13:00,
2013-05-13 01:15:00,43.2,32.2,30.05,WSW,245,2.0,3.0,65,0.00,,,0.00,Wunderground v.1.15,2013-05-13 06:15:00,
2013-05-13 01:18:00,43.1,31.7,30.05,WSW,245,2.0,3.0,64,0.00,,,0.00,Wunderground v.1.15,2013-05-13 06:18:00,
2013-05-13 01:19:00,43.2,32.2,30.05,WSW,245,2.0,4.0,65,0.00,,,0.00,Wunderground v.1.15,2013-05-13 06:19:00,
2013-05-13 01:21:00,43.1,32.1,30.05,WSW,245,3.0,3.0,65,0.00,,,0.00,Wunderground v.1.15,2013-05-13 06:21:00,
2013-05-13 01:23:00,43.2,32.2,30.05,WSW,245,3.0,3.0,65,0.00,,,0.00,Wunderground v.1.15,2013-05-13 06:23:00,
2013-05-13 01:26:00,43.2,32.2,30.06,WSW,245,3.0,3.0,65,0.00,,,0.00,Wunderground v.1.15,2013-05-13 06:26:00,
2013-05-13 01:27:00,43.2,32.2,30.06,WSW,245,3.0,3.0,65,0.00,,,0.00,Wunderground v.1.15,2013-05-13 06:27:00,
2013-05-13 01:29:00,43.2,32.2,30.06,WSW,245,3.0,3.0,65,0.00,,,0.00,Wunderground v.1.15,2013-05-13 06:29:00,
2013-05-13 01:30:00,43.2,32.2,30.06,WSW,245,3.0,3.0,65,0.00,,,0.00,Wunderground v.1.15,2013-05-13 06:30:00,
2013-05-13 01:33:00,43.2,31.8,30.05,WSW,245,3.0,3.0,64,0.00,,,0.00,Wunderground v.1.15,2013-05-13 06:33:00,
2013-05-13 01:34:00,43.3,31.9,30.05,WSW,245,3.0,3.0,64,0.00,,,0.00,Wunderground v.1.15,2013-05-13 06:34:00,
2013-05-13 01:35:00,43.3,31.9,30.05,WSW,245,3.0,3.0,64,0.00,,,0.00,Wunderground v.1.15,2013-05-13 06:35:00,
2013-05-13 01:39:00,43.3,32.3,30.05,WSW,245,3.0,3.0,65,0.00,,,0.00,Wunderground v.1.15,2013-05-13 06:39:00,
2013-05-13 01:40:00,43.2,32.2,30.06,WSW,245,3.0,3.0,65,0.00,,,0.00,Wunderground v.1.15,2013-05-13 06:40:00,
2013-05-13 01:41:00,43.2,32.2,30.05,WSW,245,3.0,3.0,65,0.00,,,0.00,Wunderground v.1.15,2013-05-13 06:41:00,
2013-05-13 01:45:00,43.2,32.2,30.05,WSW,245,2.0,3.0,65,0.00,,,0.00,Wunderground v.1.15,2013-05-13 06:45:00,
2013-05-13 01:47:00,43.2,32.2,30.06,WSW,245,1.0,3.0,65,0.00,,,0.00,Wunderground v.1.15,2013-05-13 06:47:00,
2013-05-13 01:48:00,43.1,32.1,30.06,WSW,245,1.0,3.0,65,0.00,,,0.00,Wunderground v.1.15,2013-05-13 06:48:00,
2013-05-13 01:49:00,43.1,32.1,30.06,WSW,245,1.0,3.0,65,0.00,,,0.00,Wunderground v.1.15,2013-05-13 06:49:00,
2013-05-13 01:52:00,43.1,32.1,30.05,WSW,245,1.0,2.0,65,0.00,,,0.00,Wunderground v.1.15,2013-05-13 06:52:00,
2013-05-13 01:55:00,43.1,32.1,30.05,WSW,245,1.0,2.0,65,0.00,,,0.00,Wunderground v.1.15,2013-05-13 06:55:00,
2013-05-13 01:56:00,43.1,32.1,30.05,WSW,245,1.0,2.0,65,0.00,,,0.00,Wunderground v.1.15,2013-05-13 06:56:00,
2013-05-13 01:57:00,43.1,32.1,30.05,WSW,245,1.0,2.0,65,0.00,,,0.00,Wunderground v.1.15,2013-05-13 06:57:00,
2013-05-13 02:01:00,43.1,32.1,30.06,WSW,245,1.0,2.0,65,0.00,,,0.00,Wunderground v.1.15,2013-05-13 07:01:00,
2013-05-13 02:02:00,43.0,31.6,30.05,WSW,245,1.0,2.0,64,0.00,,,0.00,Wunderground v.1.15,2013-05-13 07:02:00,
2013-05-13 02:04:00,43.0,31.6,30.05,WSW,245,1.0,2.0,64,0.00,,,0.00,Wunderground v.1.15,2013-05-13 07:04:00,
2013-05-13 02:07:00,43.0,32.0,30.05,WSW,245,1.0,3.0,65,0.00,,,0.00,Wunderground v.1.15,2013-05-13 07:07:00,
2013-05-13 02:08:00,43.0,32.0,30.05,WSW,245,2.0,3.0,65,0.00,,,0.00,Wunderground v.1.15,2013-05-13 07:08:00,
2013-05-13 02:09:00,43.0,32.0,30.05,WSW,245,2.0,3.0,65,0.00,,,0.00,Wunderground v.1.15,2013-05-13 07:09:00,
2013-05-13 02:10:00,43.0,32.0,30.05,WSW,245,2.0,2.0,65,0.00,,,0.00,Wunderground v.1.15,2013-05-13 07:10:00,
2013-05-13 02:12:00,42.9,31.9,30.05,WSW,245,2.0,2.0,65,0.00,,,0.00,Wunderground v.1.15,2013-05-13 07:12:00,
2013-05-13 02:14:00,42.8,32.2,30.05,WSW,245,2.0,3.0,66,0.00,,,0.00,Wunderground v.1.15,2013-05-13 07:14:00,
2013-05-13 02:15:00,42.8,32.2,30.05,WSW,245,2.0,3.0,66,0.00,,,0.00,Wunderground v.1.15,2013-05-13 07:15:00,
2013-05-13 02:18:00,42.7,32.1,30.05,WSW,245,2.0,3.0,66,0.00,,,0.00,Wunderground v.1.15,2013-05-13 07:18:00,
2013-05-13 02:21:00,42.6,32.0,30.05,WSW,245,2.0,3.0,66,0.00,,,0.00,Wunderground v.1.15,2013-05-13 07:21:00,
2013-05-13 02:22:00,42.6,32.0,30.05,WSW,245,2.0,3.0,66,0.00,,,0.00,Wunderground v.1.15,2013-05-13 07:22:00,
2013-05-13 02:23:00,42.6,32.0,30.05,WSW,245,2.0,3.0,66,0.00,,,0.00,Wunderground v.1.15,2013-05-13 07:23:00,
2013-05-13 02:24:00,42.6,32.0,30.05,WSW,245,2.0,3.0,66,0.00,,,0.00,Wunderground v.1.15,2013-05-13 07:24:00,
2013-05-13 02:28:00,42.7,31.7,30.05,WSW,245,2.0,3.0,65,0.00,,,0.00,Wunderground v.1.15,2013-05-13 07:28:00,
2013-05-13 02:30:00,42.8,31.8,30.05,WSW,245,2.0,3.0,65,0.00,,,0.00,Wunderground v.1.15,2013-05-13 07:30:00,
2013-05-13 02:34:00,43.0,31.6,30.05,WSW,245,2.0,3.0,64,0.00,,,0.00,Wunderground v.1.15,2013-05-13 07:34:00,
2013-05-13 02:35:00,43.1,31.7,30.06,WSW,245,2.0,3.0,64,0.00,,,0.00,Wunderground v.1.15,2013-05-13 07:35:00,
2013-05-13 02:36:00,43.1,31.7,30.06,WSW,245,2.0,3.0,64,0.00,,,0.00,Wunderground v.1.15,2013-05-13 07:36:00,
2013-05-13 02:38:00,43.1,31.7,30.05,WSW,245,2.0,3.0,64,0.00,,,0.00,Wunderground v.1.15,2013-05-13 07:38:00,
2013-05-13 02:39:00,43.1,32.1,30.05,WSW,245,1.0,3.0,65,0.00,,,0.00,Wunderground v.1.15,2013-05-13 07:39:00,
2013-05-13 02:41:00,43.1,32.1,30.05,WSW,245,1.0,1.0,65,0.00,,,0.00,Wunderground v.1.15,2013-05-13 07:41:00,
2013-05-13 02:42:00,43.1,32.1,30.05,WSW,245,1.0,1.0,65,0.00,,,0.00,Wunderground v.1.15,2013-05-13 07:42:00,
2013-05-13 02:44:00,43.1,31.7,30.05,WSW,245,1.0,2.0,64,0.00,,,0.00,Wunderground v.1.15,2013-05-13 07:44:00,
2013-05-13 02:45:00,43.1,31.7,30.05,WSW,245,1.0,2.0,64,0.00,,,0.00,Wunderground v.1.15,2013-05-13 07:45:00,
2013-05-13 02:47:00,43.1,31.7,30.05,WSW,245,1.0,2.0,64,0.00,,,0.00,Wunderground v.1.15,2013-05-13 07:47:00,
2013-05-13 02:48:00,43.1,31.7,30.05,WSW,245,1.0,2.0,64,0.00,,,0.00,Wunderground v.1.15,2013-05-13 07:48:00,
2013-05-13 02:50:00,43.1,31.7,30.05,WSW,245,1.0,1.0,64,0.00,,,0.00,Wunderground v.1.15,2013-05-13 07:50:00,
2013-05-13 02:51:00,43.1,31.7,30.06,WSW,245,1.0,2.0,64,0.00,,,0.00,Wunderground v.1.15,2013-05-13 07:51:00,
2013-05-13 02:53:00,43.1,31.7,30.06,WSW,245,1.0,2.0,64,0.00,,,0.00,Wunderground v.1.15,2013-05-13 07:53:00,
2013-05-13 02:56:00,43.1,31.7,30.06,WSW,245,1.0,2.0,64,0.00,,,0.00,Wunderground v.1.15,2013-05-13 07:56:00,
2013-05-13 02:57:00,43.0,31.6,30.06,WSW,245,1.0,2.0,64,0.00,,,0.00,Wunderground v.1.15,2013-05-13 07:57:00,
2013-05-13 02:58:00,43.0,31.6,30.05,WSW,245,2.0,2.0,64,0.00,,,0.00,Wunderground v.1.15,2013-05-13 07:58:00,
2013-05-13 03:00:00,42.9,31.9,30.06,WSW,245,2.0,2.0,65,0.00,,,0.00,Wunderground v.1.15,2013-05-13 08:00:00,
2013-05-13 03:02:00,42.9,31.9,30.06,WSW,245,1.0,2.0,65,0.00,,,0.00,Wunderground v.1.15,2013-05-13 08:02:00,
2013-05-13 03:05:00,42.8,31.8,30.06,WSW,245,1.0,2.0,65,0.00,,,0.00,Wunderground v.1.15,2013-05-13 08:05:00,
2013-05-13 03:06:00,42.8,31.8,30.06,WSW,245,1.0,2.0,65,0.00,,,0.00,Wunderground v.1.15,2013-05-13 08:06:00,
2013-05-13 03:07:00,42.8,31.8,30.06,WSW,245,1.0,2.0,65,0.00,,,0.00,Wunderground v.1.15,2013-05-13 08:07:00,
2013-05-13 03:08:00,42.8,31.8,30.06,WSW,245,1.0,2.0,65,0.00,,,0.00,Wunderground v.1.15,2013-05-13 08:08:00,
2013-05-13 03:11:00,42.7,31.7,30.06,WSW,245,0.0,0.0,65,0.00,,,0.00,Wunderground v.1.15,2013-05-13 08:11:00,
2013-05-13 03:13:00,42.6,31.7,30.05,WSW,245,0.0,0.0,65,0.00,,,0.00,Wunderground v.1.15,2013-05-13 08:13:00,
2013-05-13 03:15:00,42.6,31.7,30.05,WSW,245,0.0,1.0,65,0.00,,,0.00,Wunderground v.1.15,2013-05-13 08:15:00,
2013-05-13 03:16:00,42.6,31.7,30.05,WSW,245,0.0,1.0,65,0.00,,,0.00,Wunderground v.1.15,2013-05-13 08:16:00,
2013-05-13 03:19:00,42.7,31.7,30.05,WSW,245,0.0,1.0,65,0.00,,,0.00,Wunderground v.1.15,2013-05-13 08:19:00,
2013-05-13 03:22:00,42.7,31.7,30.05,WSW,245,0.0,0.0,65,0.00,,,0.00,Wunderground v.1.15,2013-05-13 08:22:00,
2013-05-13 03:23:00,42.7,31.7,30.06,WSW,245,0.0,0.0,65,0.00,,,0.00,Wunderground v.1.15,2013-05-13 08:23:00,
2013-05-13 03:24:00,42.7,31.7,30.06,WSW,245,0.0,0.0,65,0.00,,,0.00,Wunderground v.1.15,2013-05-13 08:24:00,
2013-05-13 03:26:00,42.7,31.7,30.06,WSW,245,0.0,0.0,65,0.00,,,0.00,Wunderground v.1.15,2013-05-13 08:26:00,
2013-05-13 03:30:00,42.7,31.7,30.05,WSW,245,0.0,1.0,65,0.00,,,0.00,Wunderground v.1.15,2013-05-13 08:30:00,
2013-05-13 03:32:00,42.7,31.7,30.05,WSW,245,0.0,2.0,65,0.00,,,0.00,Wunderground v.1.15,2013-05-13 08:32:00,
2013-05-13 03:33:00,42.8,31.8,30.05,WSW,245,0.0,2.0,65,0.00,,,0.00,Wunderground v.1.15,2013-05-13 08:33:00,
2013-05-13 03:34:00,42.8,31.8,30.05,WSW,245,0.0,2.0,65,0.00,,,0.00,Wunderground v.1.15,2013-05-13 08:34:00,
2013-05-13 03:37:00,42.8,31.5,30.05,WSW,245,1.0,2.0,64,0.00,,,0.00,Wunderground v.1.15,2013-05-13 08:37:00,
2013-05-13 03:38:00,42.9,31.6,30.05,WSW,245,1.0,2.0,64,0.00,,,0.00,Wunderground v.1.15,2013-05-13 08:38:00,
2013-05-13 03:41:00,42.8,31.5,30.05,WSW,245,0.0,0.0,64,0.00,,,0.00,Wunderground v.1.15,2013-05-13 08:41:00,
2013-05-13 03:43:00,42.9,31.6,30.05,WSW,245,0.0,0.0,64,0.00,,,0.00,Wunderground v.1.15,2013-05-13 08:43:00,
2013-05-13 03:44:00,42.9,31.6,30.05,WSW,245,0.0,0.0,64,0.00,,,0.00,Wunderground v.1.15,2013-05-13 08:44:00,
2013-05-13 03:47:00,42.9,31.6,30.05,WSW,245,0.0,0.0,64,0.00,,,0.00,Wunderground v.1.15,2013-05-13 08:47:00,
2013-05-13 03:51:00,42.9,31.6,30.05,WSW,245,0.0,0.0,64,0.00,,,0.00,Wunderground v.1.15,2013-05-13 08:51:00,
2013-05-13 03:52:00,42.9,31.6,30.05,WSW,245,0.0,0.0,64,0.00,,,0.00,Wunderground v.1.15,2013-05-13 08:52:00,
2013-05-13 03:54:00,42.9,31.6,30.05,WSW,245,0.0,1.0,64,0.00,,,0.00,Wunderground v.1.15,2013-05-13 08:54:00,
2013-05-13 03:57:00,43.0,31.6,30.05,WSW,245,0.0,1.0,64,0.00,,,0.00,Wunderground v.1.15,2013-05-13 08:57:00,
2013-05-13 03:58:00,43.1,31.7,30.05,WSW,245,0.0,1.0,64,0.00,,,0.00,Wunderground v.1.15,2013-05-13 08:58:00,
2013-05-13 04:00:00,43.1,31.7,30.05,WSW,245,0.0,0.0,64,0.00,,,0.00,Wunderground v.1.15,2013-05-13 09:00:00,
2013-05-13 04:03:00,43.1,31.7,30.05,WSW,245,0.0,2.0,64,0.00,,,0.00,Wunderground v.1.15,2013-05-13 09:03:00,
2013-05-13 04:05:00,43.1,31.7,30.05,WSW,245,0.0,2.0,64,0.00,,,0.00,Wunderground v.1.15,2013-05-13 09:05:00,
2013-05-13 04:07:00,43.1,31.7,30.05,WSW,245,0.0,2.0,64,0.00,,,0.00,Wunderground v.1.15,2013-05-13 09:07:00,
2013-05-13 04:08:00,43.1,31.7,30.05,WSW,245,1.0,2.0,64,0.00,,,0.00,Wunderground v.1.15,2013-05-13 09:08:00,
2013-05-13 04:09:00,43.1,31.7,30.05,WSW,245,1.0,2.0,64,0.00,,,0.00,Wunderground v.1.15,2013-05-13 09:09:00,
2013-05-13 04:14:00,43.1,31.7,30.05,WSW,245,1.0,1.0,64,0.00,,,0.00,Wunderground v.1.15,2013-05-13 09:14:00,
2013-05-13 04:16:00,43.1,31.7,30.05,WSW,245,1.0,1.0,64,0.00,,,0.00,Wunderground v.1.15,2013-05-13 09:16:00,
2013-05-13 04:17:00,43.1,31.7,30.05,WSW,245,1.0,1.0,64,0.00,,,0.00,Wunderground v.1.15,2013-05-13 09:17:00,
2013-05-13 04:21:00,43.1,31.7,30.05,WSW,245,0.0,0.0,64,0.00,,,0.00,Wunderground v.1.15,2013-05-13 09:21:00,
2013-05-13 04:22:00,43.1,31.7,30.05,WSW,245,0.0,0.0,64,0.00,,,0.00,Wunderground v.1.15,2013-05-13 09:22:00,
2013-05-13 04:23:00,43.1,31.7,30.05,WSW,245,0.0,2.0,64,0.00,,,0.00,Wunderground v.1.15,2013-05-13 09:23:00,
2013-05-13 04:26:00,43.1,31.7,30.05,WSW,245,0.0,2.0,64,0.00,,,0.00,Wunderground v.1.15,2013-05-13 09:26:00,
2013-05-13 04:27:00,43.1,31.7,30.05,WSW,245,1.0,2.0,64,0.00,,,0.00,Wunderground v.1.15,2013-05-13 09:27:00,
2013-05-13 04:30:00,43.1,31.7,30.05,WSW,245,1.0,1.0,64,0.00,,,0.00,Wunderground v.1.15,2013-05-13 09:30:00,
2013-05-13 04:34:00,43.0,31.6,30.05,WSW,245,1.0,1.0,64,0.00,,,0.00,Wunderground v.1.15,2013-05-13 09:34:00,
2013-05-13 04:35:00,43.0,31.6,30.05,WSW,245,0.0,1.0,64,0.00,,,0.00,Wunderground v.1.15,2013-05-13 09:35:00,
2013-05-13 04:36:00,43.0,31.6,30.05,WSW,245,0.0,1.0,64,0.00,,,0.00,Wunderground v.1.15,2013-05-13 09:36:00,
2013-05-13 04:39:00,42.9,31.9,30.05,WSW,245,0.0,1.0,65,0.00,,,0.00,Wunderground v.1.15,2013-05-13 09:39:00,
2013-05-13 04:40:00,42.9,31.9,30.05,WSW,245,0.0,2.0,65,0.00,,,0.00,Wunderground v.1.15,2013-05-13 09:40:00,
2013-05-13 04:42:00,42.8,31.8,30.05,WSW,245,0.0,2.0,65,0.00,,,0.00,Wunderground v.1.15,2013-05-13 09:42:00,
2013-05-13 04:44:00,42.8,31.8,30.05,WSW,245,1.0,2.0,65,0.00,,,0.00,Wunderground v.1.15,2013-05-13 09:44:00,
2013-05-13 04:45:00,42.7,31.7,30.05,WSW,245,1.0,2.0,65,0.00,,,0.00,Wunderground v.1.15,2013-05-13 09:45:00,
2013-05-13 04:46:00,42.7,31.7,30.05,WSW,245,1.0,2.0,65,0.00,,,0.00,Wunderground v.1.15,2013-05-13 09:46:00,
2013-05-13 04:50:00,42.3,31.7,30.05,WSW,245,2.0,4.0,66,0.00,,,0.00,Wunderground v.1.15,2013-05-13 09:50:00,
2013-05-13 04:51:00,42.2,31.6,30.05,WSW,245,2.0,4.0,66,0.00,,,0.00,Wunderground v.1.15,2013-05-13 09:51:00,
2013-05-13 04:56:00,41.5,31.4,30.05,WSW,245,2.0,4.0,67,0.00,,,0.00,Wunderground v.1.15,2013-05-13 09:56:00,
2013-05-13 04:57:00,41.4,31.6,30.05,WSW,245,2.0,4.0,68,0.00,,,0.00,Wunderground v.1.15,2013-05-13 09:57:00,
2013-05-13 04:58:00,41.3,31.5,30.05,WSW,245,2.0,4.0,68,0.00,,,0.00,Wunderground v.1.15,2013-05-13 09:58:00,
2013-05-13 04:59:00,41.3,31.5,30.05,WSW,245,2.0,4.0,68,0.00,,,0.00,Wunderground v.1.15,2013-05-13 09:59:00,
2013-05-13 05:02:00,41.2,31.4,30.05,WSW,245,1.0,2.0,68,0.00,,,0.00,Wunderground v.1.15,2013-05-13 10:02:00,
2013-05-13 05:04:00,41.2,31.4,30.05,WSW,245,1.0,2.0,68,0.00,,,0.00,Wunderground v.1.15,2013-05-13 10:04:00,
2013-05-13 05:07:00,41.1,31.3,30.05,WSW,245,1.0,2.0,68,0.00,,,0.00,Wunderground v.1.15,2013-05-13 10:07:00,
2013-05-13 05:08:00,41.1,31.3,30.05,WSW,245,1.0,2.0,68,0.00,,,0.00,Wunderground v.1.15,2013-05-13 10:08:00,
2013-05-13 05:10:00,40.9,31.5,30.05,WSW,245,1.0,1.0,69,0.00,,,0.00,Wunderground v.1.15,2013-05-13 10:10:00,
2013-05-13 05:12:00,40.9,31.5,30.05,WSW,245,1.0,1.0,69,0.00,,,0.00,Wunderground v.1.15,2013-05-13 10:12:00,
2013-05-13 05:13:00,40.8,31.4,30.05,WSW,245,1.0,2.0,69,0.00,,,0.00,Wunderground v.1.15,2013-05-13 10:13:00,
2013-05-13 05:14:00,40.8,31.4,30.05,WSW,245,1.0,2.0,69,0.00,,,0.00,Wunderground v.1.15,2013-05-13 10:14:00,
2013-05-13 05:18:00,40.6,31.6,30.05,WSW,245,1.0,2.0,70,0.00,,,0.00,Wunderground v.1.15,2013-05-13 10:18:00,
2013-05-13 05:19:00,40.5,31.5,30.06,WSW,245,1.0,2.0,70,0.00,,,0.00,Wunderground v.1.15,2013-05-13 10:19:00,
2013-05-13 05:20:00,40.4,31.4,30.05,WSW,245,1.0,1.0,70,0.00,,,0.00,Wunderground v.1.15,2013-05-13 10:20:00,
2013-05-13 05:21:00,40.3,31.6,30.06,WSW,245,1.0,1.0,71,0.00,,,0.00,Wunderground v.1.15,2013-05-13 10:21:00,
2013-05-13 05:24:00,40.2,31.5,30.06,WSW,245,1.0,2.0,71,0.00,,,0.00,Wunderground v.1.15,2013-05-13 10:24:00,
2013-05-13 05:25:00,40.2,31.5,30.06,WSW,245,1.0,2.0,71,0.00,,,0.00,Wunderground v.1.15,2013-05-13 10:25:00,
2013-05-13 05:26:00,40.3,31.3,30.06,WSW,245,1.0,2.0,70,0.00,,,0.00,Wunderground v.1.15,2013-05-13 10:26:00,
2013-05-13 05:27:00,40.3,31.3,30.06,WSW,245,1.0,2.0,70,0.00,,,0.00,Wunderground v.1.15,2013-05-13 10:27:00,
2013-05-13 05:28:00,40.3,31.3,30.06,WSW,245,1.0,2.0,70,0.00,,,0.00,Wunderground v.1.15,2013-05-13 10:28:00,
2013-05-13 05:30:00,40.4,31.4,30.06,WSW,245,1.0,1.0,70,0.00,,,0.00,Wunderground v.1.15,2013-05-13 10:30:00,
2013-05-13 05:31:00,40.5,31.5,30.06,WSW,245,1.0,1.0,70,0.00,,,0.00,Wunderground v.1.15,2013-05-13 10:31:00,
2013-05-13 05:35:00,40.8,31.4,30.06,WSW,245,1.0,1.0,69,0.00,,,0.00,Wunderground v.1.15,2013-05-13 10:35:00,
2013-05-13 05:36:00,40.9,31.5,30.06,WSW,245,1.0,1.0,69,0.00,,,0.00,Wunderground v.1.15,2013-05-13 10:36:00,
2013-05-13 05:37:00,40.9,31.5,30.06,WSW,245,1.0,1.0,69,0.00,,,0.00,Wunderground v.1.15,2013-05-13 10:37:00,
2013-05-13 05:38:00,41.0,33.0,30.06,WSW,245,0.0,1.0,73,0.00,,,0.00,Wunderground v.1.15,2013-05-13 10:38:00,
2013-05-13 05:39:00,41.1,31.7,30.06,WSW,245,0.0,1.0,69,0.00,,,0.00,Wunderground v.1.15,2013-05-13 10:39:00,
2013-05-13 05:41:00,41.3,31.5,30.06,WSW,245,0.0,0.0,68,0.00,,,0.00,Wunderground v.1.15,2013-05-13 10:41:00,
2013-05-13 05:42:00,41.4,31.6,30.06,WSW,245,0.0,0.0,68,0.00,,,0.00,Wunderground v.1.15,2013-05-13 10:42:00,
2013-05-13 05:47:00,41.7,31.9,30.06,WSW,245,0.0,0.0,68,0.00,,,0.00,Wunderground v.1.15,2013-05-13 10:47:00,
2013-05-13 05:48:00,41.8,32.0,30.06,WSW,245,0.0,0.0,68,0.00,,,0.00,Wunderground v.1.15,2013-05-13 10:48:00,
2013-05-13 05:50:00,41.8,31.6,30.06,WSW,245,0.0,0.0,67,0.00,,,0.00,Wunderground v.1.15,2013-05-13 10:50:00,
2013-05-13 05:52:00,41.9,31.7,30.06,WSW,245,0.0,0.0,67,0.00,,,0.00,Wunderground v.1.15,2013-05-13 10:52:00,
2013-05-13 05:53:00,41.9,31.7,30.06,WSW,245,0.0,0.0,67,0.00,,,0.00,Wunderground v.1.15,2013-05-13 10:53:00,
2013-05-13 05:54:00,41.9,31.7,30.06,WSW,245,0.0,0.0,67,0.00,,,0.00,Wunderground v.1.15,2013-05-13 10:54:00,
2013-05-13 05:55:00,41.9,31.7,30.06,WSW,245,0.0,0.0,67,0.00,,,0.00,Wunderground v.1.15,2013-05-13 10:55:00,
2013-05-13 06:00:00,41.9,31.7,30.06,WSW,245,0.0,0.0,67,0.00,,,0.00,Wunderground v.1.15,2013-05-13 11:00:00,
2013-05-13 06:01:00,41.9,31.7,30.06,WSW,245,0.0,0.0,67,0.00,,,0.00,Wunderground v.1.15,2013-05-13 11:01:00,
2013-05-13 06:02:00,41.9,31.7,30.06,WSW,245,0.0,0.0,67,0.00,,,0.00,Wunderground v.1.15,2013-05-13 11:02:00,
2013-05-13 06:04:00,41.8,31.6,30.06,WSW,245,0.0,0.0,67,0.00,,,0.00,Wunderground v.1.15,2013-05-13 11:04:00,
2013-05-13 06:06:00,41.7,31.9,30.06,WSW,245,0.0,0.0,68,0.00,,,0.00,Wunderground v.1.15,2013-05-13 11:06:00,
2013-05-13 06:08:00,41.7,31.9,30.06,WSW,245,0.0,2.0,68,0.00,,,0.00,Wunderground v.1.15,2013-05-13 11:08:00,
2013-05-13 06:09:00,41.6,31.8,30.07,WSW,245,1.0,2.0,68,0.00,,,0.00,Wunderground v.1.15,2013-05-13 11:09:00,
2013-05-13 06:10:00,41.6,31.8,30.07,WSW,245,1.0,1.0,68,0.00,,,0.00,Wunderground v.1.15,2013-05-13 11:10:00,
2013-05-13 06:12:00,41.6,31.8,30.07,WSW,245,1.0,2.0,68,0.00,,,0.00,Wunderground v.1.15,2013-05-13 11:12:00,
2013-05-13 06:15:00,41.7,31.9,30.07,WSW,245,2.0,2.0,68,0.00,,,0.00,Wunderground v.1.15,2013-05-13 11:15:00,
2013-05-13 06:16:00,41.7,31.9,30.07,WSW,245,2.0,2.0,68,0.00,,,0.00,Wunderground v.1.15,2013-05-13 11:16:00,
2013-05-13 06:20:00,41.8,32.0,30.07,WSW,245,2.0,2.0,68,0.00,,,0.00,Wunderground v.1.15,2013-05-13 11:20:00,
2013-05-13 06:22:00,41.8,32.0,30.07,WSW,245,2.0,2.0,68,0.00,,,0.00,Wunderground v.1.15,2013-05-13 11:22:00,
2013-05-13 06:23:00,41.9,32.1,30.07,WSW,245,1.0,2.0,68,0.00,,,0.00,Wunderground v.1.15,2013-05-13 11:23:00,
2013-05-13 06:24:00,41.9,32.1,30.07,WSW,245,1.0,2.0,68,0.00,,,0.00,Wunderground v.1.15,2013-05-13 11:24:00,
2013-05-13 06:25:00,41.9,32.1,30.07,WSW,245,1.0,2.0,68,0.00,,,0.00,Wunderground v.1.15,2013-05-13 11:25:00,
2013-05-13 06:27:00,42.1,32.3,30.07,WSW,245,1.0,2.0,68,0.00,,,0.00,Wunderground v.1.15,2013-05-13 11:27:00,
2013-05-13 06:29:00,42.3,32.1,30.07,WSW,245,0.0,2.0,67,0.00,,,0.00,Wunderground v.1.15,2013-05-13 11:29:00,
2013-05-13 06:32:00,42.6,32.0,30.07,WSW,245,0.0,3.0,66,0.00,,,0.00,Wunderground v.1.15,2013-05-13 11:32:00,
2013-05-13 06:33:00,42.7,32.1,30.07,WSW,245,1.0,3.0,66,0.00,,,0.00,Wunderground v.1.15,2013-05-13 11:33:00,
2013-05-13 06:34:00,42.9,32.3,30.07,WSW,245,1.0,3.0,66,0.00,,,0.00,Wunderground v.1.15,2013-05-13 11:34:00,
2013-05-13 06:38:00,43.3,32.3,30.07,WSW,245,2.0,3.0,65,0.00,,,0.00,Wunderground v.1.15,2013-05-13 11:38:00,
2013-05-13 06:39:00,43.4,32.4,30.07,WSW,245,2.0,3.0,65,0.00,,,0.00,Wunderground v.1.15,2013-05-13 11:39:00,
2013-05-13 06:42:00,43.6,32.2,30.07,WSW,245,3.0,3.0,64,0.00,,,0.00,Wunderground v.1.15,2013-05-13 11:42:00,
2013-05-13 06:44:00,43.7,32.7,30.07,WSW,245,2.0,3.0,65,0.00,,,0.00,Wunderground v.1.15,2013-05-13 11:44:00,
2013-05-13 06:45:00,43.7,33.1,30.07,WSW,245,2.0,3.0,66,0.00,,,0.00,Wunderground v.1.15,2013-05-13 11:45:00,
2013-05-13 06:46:00,43.7,32.7,30.07,WSW,245,2.0,3.0,65,0.00,,,0.00,Wunderground v.1.15,2013-05-13 11:46:00,
2013-05-13 06:48:00,43.7,32.7,30.07,WSW,245,2.0,3.0,65,0.00,,,0.00,Wunderground v.1.15,2013-05-13 11:48:00,
2013-05-13 06:51:00,43.7,33.1,30.07,WSW,245,2.0,2.0,66,0.00,,,0.00,Wunderground v.1.15,2013-05-13 11:51:00,
2013-05-13 06:54:00,43.9,33.3,30.07,WSW,245,2.0,3.0,66,0.00,,,0.00,Wunderground v.1.15,2013-05-13 11:54:00,
2013-05-13 06:55:00,44.0,33.4,30.07,WSW,245,2.0,3.0,66,0.00,,,0.00,Wunderground v.1.15,2013-05-13 11:55:00,
2013-05-13 06:56:00,44.0,33.4,30.07,WSW,245,2.0,3.0,66,0.00,,,0.00,Wunderground v.1.15,2013-05-13 11:56:00,
2013-05-13 07:01:00,44.4,33.4,30.08,WSW,245,1.0,1.0,65,0.00,,,0.00,Wunderground v.1.15,2013-05-13 12:01:00,
2013-05-13 07:03:00,44.5,34.2,30.08,WSW,245,1.0,1.0,67,0.00,,,0.00,Wunderground v.1.15,2013-05-13 12:03:00,
2013-05-13 07:06:00,44.7,34.0,30.08,WSW,245,0.0,2.0,66,0.00,,,0.00,Wunderground v.1.15,2013-05-13 12:06:00,
2013-05-13 07:07:00,44.7,34.0,30.08,WSW,245,0.0,2.0,66,0.00,,,0.00,Wunderground v.1.15,2013-05-13 12:07:00,
2013-05-13 07:08:00,44.8,33.7,30.08,WSW,245,0.0,2.0,65,0.00,,,0.00,Wunderground v.1.15,2013-05-13 12:08:00,
2013-05-13 07:09:00,44.9,34.2,30.08,WSW,245,0.0,2.0,66,0.00,,,0.00,Wunderground v.1.15,2013-05-13 12:09:00,
2013-05-13 07:10:00,44.9,34.2,30.08,WSW,245,0.0,2.0,66,0.00,,,0.00,Wunderground v.1.15,2013-05-13 12:10:00,
2013-05-13 07:12:00,45.1,34.4,30.08,WSW,245,1.0,3.0,66,0.00,,,0.00,Wunderground v.1.15,2013-05-13 12:12:00,
2013-05-13 07:15:00,45.4,33.9,30.08,WSW,245,2.0,3.0,64,0.00,,,0.00,Wunderground v.1.15,2013-05-13 12:15:00,
2013-05-13 07:16:00,45.4,33.9,30.08,WSW,245,2.0,3.0,64,0.00,,,0.00,Wunderground v.1.15,2013-05-13 12:16:00,
2013-05-13 07:17:00,45.5,33.6,30.08,WSW,245,2.0,3.0,63,0.00,,,0.00,Wunderground v.1.15,2013-05-13 12:17:00,
2013-05-13 07:18:00,45.6,34.1,30.09,WSW,245,2.0,3.0,64,0.00,,,0.00,Wunderground v.1.15,2013-05-13 12:18:00,
2013-05-13 07:23:00,46.0,34.9,30.09,WSW,245,2.0,2.0,65,0.00,,,0.00,Wunderground v.1.15,2013-05-13 12:23:00,
2013-05-13 07:24:00,46.1,34.6,30.09,WSW,245,1.0,2.0,64,0.00,,,0.00,Wunderground v.1.15,2013-05-13 12:24:00,
2013-05-13 07:25:00,46.2,35.1,30.09,WSW,245,1.0,2.0,65,0.00,,,0.00,Wunderground v.1.15,2013-05-13 12:25:00,
2013-05-13 07:28:00,46.4,35.3,30.09,WSW,245,0.0,2.0,65,0.00,,,0.00,Wunderground v.1.15,2013-05-13 12:28:00,
2013-05-13 07:30:00,46.6,36.2,30.09,WSW,245,0.0,0.0,67,0.00,,,0.00,Wunderground v.1.15,2013-05-13 12:30:00,
2013-05-13 07:32:00,46.8,36.8,30.09,WSW,245,0.0,0.0,68,0.00,,,0.00,Wunderground v.1.15,2013-05-13 12:32:00,
2013-05-13 07:33:00,46.9,36.9,30.09,WSW,245,0.0,0.0,68,0.00,,,0.00,Wunderground v.1.15,2013-05-13 12:33:00,
2013-05-13 07:35:00,47.1,36.7,30.09,WSW,245,0.0,0.0,67,0.00,,,0.00,Wunderground v.1.15,2013-05-13 12:35:00,
2013-05-13 07:38:00,47.4,36.6,30.09,WSW,245,0.0,0.0,66,0.00,,,0.00,Wunderground v.1.15,2013-05-13 12:38:00,
2013-05-13 07:40:00,47.6,36.4,30.09,WSW,245,0.0,0.0,65,0.00,,,0.00,Wunderground v.1.15,2013-05-13 12:40:00,
2013-05-13 07:41:00,47.6,36.4,30.09,WSW,245,0.0,0.0,65,0.00,,,0.00,Wunderground v.1.15,2013-05-13 12:41:00,
2013-05-13 07:43:00,47.9,36.7,30.09,WSW,245,0.0,0.0,65,0.00,,,0.00,Wunderground v.1.15,2013-05-13 12:43:00,
2013-05-13 07:46:00,48.2,35.8,30.09,WSW,245,0.0,2.0,62,0.00,,,0.00,Wunderground v.1.15,2013-05-13 12:46:00,
2013-05-13 07:47:00,48.3,35.5,30.09,WSW,245,0.0,2.0,61,0.00,,,0.00,Wunderground v.1.15,2013-05-13 12:47:00,
2013-05-13 07:50:00,48.7,36.3,30.09,WSW,245,0.0,0.0,62,0.00,,,0.00,Wunderground v.1.15,2013-05-13 12:50:00,
2013-05-13 07:51:00,48.8,36.8,30.09,WSW,245,0.0,0.0,63,0.00,,,0.00,Wunderground v.1.15,2013-05-13 12:51:00,
2013-05-13 07:52:00,48.8,37.2,30.09,WSW,245,0.0,0.0,64,0.00,,,0.00,Wunderground v.1.15,2013-05-13 12:52:00,
2013-05-13 07:53:00,49.0,37.3,30.09,WSW,245,0.0,0.0,64,0.00,,,0.00,Wunderground v.1.15,2013-05-13 12:53:00,
2013-05-13 07:56:00,49.4,38.1,30.10,WSW,245,0.0,1.0,65,0.00,,,0.00,Wunderground v.1.15,2013-05-13 12:56:00,
2013-05-13 07:57:00,49.5,38.6,30.10,WSW,245,0.0,1.0,66,0.00,,,0.00,Wunderground v.1.15,2013-05-13 12:57:00,
2013-05-13 07:58:00,49.5,38.2,30.10,WSW,245,0.0,2.0,65,0.00,,,0.00,Wunderground v.1.15,2013-05-13 12:58:00,
2013-05-13 08:02:00,49.8,39.3,30.10,WSW,245,1.0,6.0,67,0.00,,,0.00,Wunderground v.1.15,2013-05-13 13:02:00,
2013-05-13 08:05:00,49.6,39.1,30.10,WSW,240,3.0,6.0,67,0.00,,,0.00,Wunderground v.1.15,2013-05-13 13:05:00,
2013-05-13 08:07:00,49.5,39.4,30.11,WSW,240,4.0,6.0,68,0.00,,,0.00,Wunderground v.1.15,2013-05-13 13:07:00,
2013-05-13 08:08:00,49.4,39.3,30.11,WSW,239,5.0,6.0,68,0.00,,,0.00,Wunderground v.1.15,2013-05-13 13:08:00,
2013-05-13 08:10:00,49.2,39.5,30.11,WSW,239,5.0,5.0,69,0.00,,,0.00,Wunderground v.1.15,2013-05-13 13:10:00,
2013-05-13 08:11:00,49.1,39.4,30.10,WSW,239,5.0,5.0,69,0.00,,,0.00,Wunderground v.1.15,2013-05-13 13:11:00,
2013-05-13 08:12:00,49.0,39.6,30.10,WSW,239,5.0,5.0,70,0.00,,,0.00,Wunderground v.1.15,2013-05-13 13:12:00,
2013-05-13 08:16:00,48.7,39.0,30.10,WSW,239,5.0,5.0,69,0.00,,,0.00,Wunderground v.1.15,2013-05-13 13:16:00,
2013-05-13 08:17:00,48.7,39.0,30.10,WSW,239,4.0,5.0,69,0.00,,,0.00,Wunderground v.1.15,2013-05-13 13:17:00,
2013-05-13 08:18:00,48.7,39.0,30.10,WSW,239,3.0,5.0,69,0.00,,,0.00,Wunderground v.1.15,2013-05-13 13:18:00,
2013-05-13 08:22:00,48.8,38.7,30.10,WSW,239,2.0,3.0,68,0.00,,,0.00,Wunderground v.1.15,2013-05-13 13:22:00,
2013-05-13 08:24:00,49.0,39.6,30.10,WSW,239,1.0,3.0,70,0.00,,,0.00,Wunderground v.1.15,2013-05-13 13:24:00,
2013-05-13 08:25:00,49.0,39.3,30.11,WSW,239,1.0,3.0,69,0.00,,,0.00,Wunderground v.1.15,2013-05-13 13:25:00,
2013-05-13 08:26:00,49.1,38.6,30.11,WSW,239,1.0,4.0,67,0.00,,,0.00,Wunderground v.1.15,2013-05-13 13:26:00,
2013-05-13 08:27:00,49.2,38.7,30.11,WSW,239,1.0,4.0,67,0.00,,,0.00,Wunderground v.1.15,2013-05-13 13:27:00,
2013-05-13 08:31:00,49.6,39.1,30.11,WSW,239,1.0,1.0,67,0.00,,,0.00,Wunderground v.1.15,2013-05-13 13:31:00,
2013-05-13 08:33:00,49.7,38.8,30.11,WSW,239,1.0,1.0,66,0.00,,,0.00,Wunderground v.1.15,2013-05-13 13:33:00,
2013-05-13 08:34:00,49.9,39.0,30.11,WSW,239,1.0,1.0,66,0.00,,,0.00,Wunderground v.1.15,2013-05-13 13:34:00,
2013-05-13 08:36:00,50.1,38.8,30.11,WSW,239,0.0,1.0,65,0.00,,,0.00,Wunderground v.1.15,2013-05-13 13:36:00,
2013-05-13 08:39:00,50.5,39.6,30.11,WSW,239,0.0,1.0,66,0.00,,,0.00,Wunderground v.1.15,2013-05-13 13:39:00,
2013-05-13 08:41:00,50.6,39.7,30.11,WSW,239,0.0,2.0,66,0.00,,,0.00,Wunderground v.1.15,2013-05-13 13:41:00,
2013-05-13 08:43:00,50.9,38.7,30.11,WSW,239,0.0,2.0,63,0.00,,,0.00,Wunderground v.1.15,2013-05-13 13:43:00,
2013-05-13 08:44:00,50.9,38.7,30.11,WSW,239,0.0,2.0,63,0.00,,,0.00,Wunderground v.1.15,2013-05-13 13:44:00,
2013-05-13 08:45:00,51.1,38.9,30.11,WSW,239,1.0,5.0,63,0.00,,,0.00,Wunderground v.1.15,2013-05-13 13:45:00,
2013-05-13 08:46:00,51.1,39.3,30.11,WSW,239,1.0,6.0,64,0.00,,,0.00,Wunderground v.1.15,2013-05-13 13:46:00,
2013-05-13 08:51:00,51.4,38.8,30.10,WSW,239,2.0,2.0,62,0.00,,,0.00,Wunderground v.1.15,2013-05-13 13:51:00,
2013-05-13 08:54:00,51.7,39.1,30.10,WSW,239,2.0,2.0,62,0.00,,,0.00,Wunderground v.1.15,2013-05-13 13:54:00,
2013-05-13 08:55:00,51.9,37.1,30.10,WSW,239,2.0,2.0,57,0.00,,,0.00,Wunderground v.1.15,2013-05-13 13:55:00,
2013-05-13 08:58:00,52.3,36.6,30.10,WSW,239,1.0,3.0,55,0.00,,,0.00,Wunderground v.1.15,2013-05-13 13:58:00,
2013-05-13 09:01:00,52.7,37.4,30.10,WSW,239,1.0,3.0,56,0.00,,,0.00,Wunderground v.1.15,2013-05-13 14:01:00,
2013-05-13 09:03:00,52.8,36.1,30.11,WSW,239,2.0,3.0,53,0.00,,,0.00,Wunderground v.1.15,2013-05-13 14:03:00,
2013-05-13 09:04:00,52.9,36.2,30.11,WSW,239,2.0,3.0,53,0.00,,,0.00,Wunderground v.1.15,2013-05-13 14:04:00,
2013-05-13 09:05:00,53.0,36.3,30.10,WSW,239,1.0,3.0,53,0.00,,,0.00,Wunderground v.1.15,2013-05-13 14:05:00,
2013-05-13 09:07:00,53.2,36.5,30.11,WSW,239,1.0,3.0,53,0.00,,,0.00,Wunderground v.1.15,2013-05-13 14:07:00,
2013-05-13 09:10:00,53.4,34.2,30.10,WSW,239,1.0,3.0,48,0.00,,,0.00,Wunderground v.1.15,2013-05-13 14:10:00,
2013-05-13 09:11:00,53.5,35.3,30.10,WSW,239,1.0,3.0,50,0.00,,,0.00,Wunderground v.1.15,2013-05-13 14:11:00,
2013-05-13 09:12:00,53.5,36.8,30.10,WSW,239,1.0,3.0,53,0.00,,,0.00,Wunderground v.1.15,2013-05-13 14:12:00,
2013-05-13 09:13:00,53.6,35.9,30.10,WSW,239,1.0,4.0,51,0.00,,,0.00,Wunderground v.1.15,2013-05-13 14:13:00,
2013-05-13 09:17:00,53.9,38.1,30.10,WSW,239,2.0,4.0,55,0.00,,,0.00,Wunderground v.1.15,2013-05-13 14:17:00,
2013-05-13 09:18:00,54.0,37.7,30.10,WSW,239,2.0,4.0,54,0.00,,,0.00,Wunderground v.1.15,2013-05-13 14:18:00,
2013-05-13 09:19:00,54.2,37.9,30.10,WSW,238,2.0,4.0,54,0.00,,,0.00,Wunderground v.1.15,2013-05-13 14:19:00,
2013-05-13 09:20:00,54.3,37.5,30.10,SW,234,2.0,3.0,53,0.00,,,0.00,Wunderground v.1.15,2013-05-13 14:20:00,
2013-05-13 09:24:00,54.6,36.3,30.11,SW,234,3.0,4.0,50,0.00,,,0.00,Wunderground v.1.15,2013-05-13 14:24:00,
2013-05-13 09:25:00,54.7,35.9,30.11,SW,234,3.0,4.0,49,0.00,,,0.00,Wunderground v.1.15,2013-05-13 14:25:00,
2013-05-13 09:29:00,55.0,36.7,30.11,SW,234,3.0,4.0,50,0.00,,,0.00,Wunderground v.1.15,2013-05-13 14:29:00,
2013-05-13 09:30:00,55.0,36.7,30.11,SW,234,3.0,3.0,50,0.00,,,0.00,Wunderground v.1.15,2013-05-13 14:30:00,
2013-05-13 09:32:00,55.2,35.8,30.11,SW,231,3.0,5.0,48,0.00,,,0.00,Wunderground v.1.15,2013-05-13 14:32:00,
2013-05-13 09:36:00,55.5,36.1,30.11,SW,221,2.0,5.0,48,0.00,,,0.00,Wunderground v.1.15,2013-05-13 14:36:00,
2013-05-13 09:37:00,55.5,36.1,30.11,SW,221,2.0,5.0,48,0.00,,,0.00,Wunderground v.1.15,2013-05-13 14:37:00,
2013-05-13 09:39:00,55.7,35.8,30.10,SW,221,2.0,5.0,47,0.00,,,0.00,Wunderground v.1.15,2013-05-13 14:39:00,
2013-05-13 09:40:00,55.7,35.8,30.10,SW,221,2.0,4.0,47,0.00,,,0.00,Wunderground v.1.15,2013-05-13 14:40:00,
2013-05-13 09:41:00,55.7,34.7,30.11,SW,221,2.0,4.0,45,0.00,,,0.00,Wunderground v.1.15,2013-05-13 14:41:00,
2013-05-13 09:44:00,55.9,33.7,30.11,SW,221,2.0,4.0,43,0.00,,,0.00,Wunderground v.1.15,2013-05-13 14:44:00,
2013-05-13 09:48:00,55.9,33.7,30.10,SW,218,3.0,6.0,43,0.00,,,0.00,Wunderground v.1.15,2013-05-13 14:48:00,
2013-05-13 09:49:00,56.0,33.8,30.10,SW,218,3.0,6.0,43,0.00,,,0.00,Wunderground v.1.15,2013-05-13 14:49:00,
2013-05-13 09:50:00,56.0,34.4,30.11,SW,218,3.0,3.0,44,0.00,,,0.00,Wunderground v.1.15,2013-05-13 14:50:00,
2013-05-13 09:51:00,56.0,32.6,30.10,SW,218,3.0,3.0,41,0.00,,,0.00,Wunderground v.1.15,2013-05-13 14:51:00,
2013-05-13 09:54:00,56.2,32.8,30.10,SW,217,3.0,4.0,41,0.00,,,0.00,Wunderground v.1.15,2013-05-13 14:54:00,
2013-05-13 09:56:00,56.3,32.9,30.10,SW,217,3.0,5.0,41,0.00,,,0.00,Wunderground v.1.15,2013-05-13 14:56:00,
2013-05-13 09:59:00,56.3,32.9,30.10,SW,223,4.0,7.0,41,0.00,,,0.00,Wunderground v.1.15,2013-05-13 14:59:00,
2013-05-13 10:02:00,56.4,31.7,30.10,SW,223,3.0,4.0,39,0.00,,,0.00,Wunderground v.1.15,2013-05-13 15:02:00,
2013-05-13 10:03:00,56.4,32.4,30.10,SW,223,3.0,4.0,40,0.00,,,0.00,Wunderground v.1.15,2013-05-13 15:03:00,
2013-05-13 10:05:00,56.5,32.4,30.10,SW,223,3.0,4.0,40,0.00,,,0.00,Wunderground v.1.15,2013-05-13 15:05:00,
2013-05-13 10:08:00,56.5,33.1,30.10,SW,223,3.0,6.0,41,0.00,,,0.00,Wunderground v.1.15,2013-05-13 15:08:00,
2013-05-13 10:09:00,56.5,33.7,30.10,SW,223,3.0,6.0,42,0.00,,,0.00,Wunderground v.1.15,2013-05-13 15:09:00,
2013-05-13 10:10:00,56.5,32.4,30.10,SW,223,3.0,4.0,40,0.00,,,0.00,Wunderground v.1.15,2013-05-13 15:10:00,
2013-05-13 10:11:00,56.5,33.1,30.10,SW,223,3.0,4.0,41,0.00,,,0.00,Wunderground v.1.15,2013-05-13 15:11:00,
2013-05-13 10:13:00,56.6,34.9,30.10,SW,223,4.0,5.0,44,0.00,,,0.00,Wunderground v.1.15,2013-05-13 15:13:00,
2013-05-13 10:14:00,56.6,34.3,30.10,SW,223,4.0,5.0,43,0.00,,,0.00,Wunderground v.1.15,2013-05-13 15:14:00,
2013-05-13 10:16:00,56.7,34.4,30.10,SW,223,4.0,7.0,43,0.00,,,0.00,Wunderground v.1.15,2013-05-13 15:16:00,
2013-05-13 10:17:00,56.7,34.4,30.10,SW,223,4.0,7.0,43,0.00,,,0.00,Wunderground v.1.15,2013-05-13 15:17:00,
2013-05-13 10:18:00,56.8,33.9,30.10,SW,222,4.0,7.0,42,0.00,,,0.00,Wunderground v.1.15,2013-05-13 15:18:00,
2013-05-13 10:19:00,56.8,32.7,30.10,SW,222,4.0,7.0,40,0.00,,,0.00,Wunderground v.1.15,2013-05-13 15:19:00,
2013-05-13 10:20:00,56.8,32.7,30.10,SW,222,3.0,3.0,40,0.00,,,0.00,Wunderground v.1.15,2013-05-13 15:20:00,
2013-05-13 10:23:00,56.9,35.2,30.10,SW,224,3.0,4.0,44,0.00,,,0.00,Wunderground v.1.15,2013-05-13 15:23:00,
2013-05-13 10:24:00,57.0,34.1,30.10,SW,224,3.0,5.0,42,0.00,,,0.00,Wunderground v.1.15,2013-05-13 15:24:00,
2013-05-13 10:25:00,57.1,34.8,30.10,SW,223,3.0,5.0,43,0.00,,,0.00,Wunderground v.1.15,2013-05-13 15:25:00,
2013-05-13 10:26:00,57.1,35.9,30.10,SW,224,3.0,5.0,45,0.00,,,0.00,Wunderground v.1.15,2013-05-13 15:26:00,
2013-05-13 10:29:00,57.5,36.9,30.10,SW,229,2.0,9.0,46,0.00,,,0.00,Wunderground v.1.15,2013-05-13 15:29:00,
2013-05-13 10:30:00,57.6,34.7,30.10,SW,229,3.0,3.0,42,0.00,,,0.00,Wunderground v.1.15,2013-05-13 15:30:00,
2013-05-13 10:31:00,57.7,36.5,30.09,SW,229,3.0,5.0,45,0.00,,,0.00,Wunderground v.1.15,2013-05-13 15:31:00,
2013-05-13 10:33:00,57.9,34.3,30.09,SW,229,4.0,5.0,41,0.00,,,0.00,Wunderground v.1.15,2013-05-13 15:33:00,
2013-05-13 10:34:00,57.9,33.1,30.09,SW,229,4.0,5.0,39,0.00,,,0.00,Wunderground v.1.15,2013-05-13 15:34:00,
2013-05-13 10:37:00,57.9,34.9,30.10,WSW,238,4.0,5.0,42,0.00,,,0.00,Wunderground v.1.15,2013-05-13 15:37:00,
2013-05-13 10:38:00,57.9,34.3,30.10,WSW,238,4.0,5.0,41,0.00,,,0.00,Wunderground v.1.15,2013-05-13 15:38:00,
2013-05-13 10:40:00,58.1,33.9,30.10,WSW,238,3.0,3.0,40,0.00,,,0.00,Wunderground v.1.15,2013-05-13 15:40:00,
2013-05-13 10:41:00,58.2,35.2,30.10,WSW,238,3.0,5.0,42,0.00,,,0.00,Wunderground v.1.15,2013-05-13 15:41:00,
2013-05-13 10:44:00,58.4,34.2,30.10,WSW,238,2.0,5.0,40,0.00,,,0.00,Wunderground v.1.15,2013-05-13 15:44:00,
2013-05-13 10:45:00,58.5,33.6,30.10,WSW,238,1.0,5.0,39,0.00,,,0.00,Wunderground v.1.15,2013-05-13 15:45:00,
2013-05-13 10:47:00,58.6,33.0,30.10,WSW,238,1.0,5.0,38,0.00,,,0.00,Wunderground v.1.15,2013-05-13 15:47:00,
2013-05-13 10:48:00,58.6,33.7,30.10,WSW,240,2.0,5.0,39,0.00,,,0.00,Wunderground v.1.15,2013-05-13 15:48:00,
2013-05-13 10:50:00,58.6,32.4,30.10,WSW,240,3.0,3.0,37,0.00,,,0.00,Wunderground v.1.15,2013-05-13 15:50:00,
2013-05-13 10:52:00,58.6,32.4,30.10,WSW,240,3.0,3.0,37,0.00,,,0.00,Wunderground v.1.15,2013-05-13 15:52:00,
2013-05-13 10:53:00,58.6,32.4,30.10,WSW,240,3.0,3.0,37,0.00,,,0.00,Wunderground v.1.15,2013-05-13 15:53:00,
2013-05-13 10:54:00,58.6,31.7,30.10,WSW,240,3.0,4.0,36,0.00,,,0.00,Wunderground v.1.15,2013-05-13 15:54:00,
2013-05-13 10:56:00,58.6,33.7,30.10,WSW,240,3.0,4.0,39,0.00,,,0.00,Wunderground v.1.15,2013-05-13 15:56:00,
2013-05-13 10:59:00,58.9,34.0,30.10,WSW,240,2.0,4.0,39,0.00,,,0.00,Wunderground v.1.15,2013-05-13 15:59:00,
2013-05-13 11:02:00,59.3,32.3,30.10,WSW,238,3.0,7.0,36,0.00,,,0.00,Wunderground v.1.15,2013-05-13 16:02:00,
2013-05-13 11:04:00,59.5,35.8,30.10,WSW,238,4.0,9.0,41,0.00,,,0.00,Wunderground v.1.15,2013-05-13 16:04:00,
2013-05-13 11:05:00,59.6,34.6,30.10,WSW,239,5.0,9.0,39,0.00,,,0.00,Wunderground v.1.15,2013-05-13 16:05:00,
2013-05-13 11:09:00,59.9,32.9,30.10,WSW,245,5.0,9.0,36,0.00,,,0.00,Wunderground v.1.15,2013-05-13 16:09:00,
2013-05-13 11:10:00,59.9,33.5,30.09,WSW,245,5.0,5.0,37,0.00,,,0.00,Wunderground v.1.15,2013-05-13 16:10:00,
2013-05-13 11:11:00,59.9,32.9,30.09,WSW,245,5.0,5.0,36,0.00,,,0.00,Wunderground v.1.15,2013-05-13 16:11:00,
2013-05-13 11:12:00,60.0,33.6,30.09,WSW,245,4.0,5.0,37,0.00,,,0.00,Wunderground v.1.15,2013-05-13 16:12:00,
2013-05-13 11:13:00,60.1,32.3,30.09,WSW,245,3.0,5.0,35,0.00,,,0.00,Wunderground v.1.15,2013-05-13 16:13:00,
2013-05-13 11:16:00,60.4,33.3,30.09,WSW,251,2.0,7.0,36,0.00,,,0.00,Wunderground v.1.15,2013-05-13 16:16:00,
2013-05-13 11:17:00,60.5,32.7,30.09,WSW,251,2.0,7.0,35,0.00,,,0.00,Wunderground v.1.15,2013-05-13 16:17:00,
2013-05-13 11:19:00,60.6,33.5,30.09,WSW,252,3.0,7.0,36,0.00,,,0.00,Wunderground v.1.15,2013-05-13 16:19:00,
2013-05-13 11:20:00,60.7,30.6,30.09,West,269,3.0,4.0,32,0.00,,,0.00,Wunderground v.1.15,2013-05-13 16:20:00,
2013-05-13 11:23:00,60.8,32.2,30.09,WSW,252,5.0,10.0,34,0.00,,,0.00,Wunderground v.1.15,2013-05-13 16:23:00,
2013-05-13 11:24:00,60.9,32.3,30.09,WSW,252,5.0,10.0,34,0.00,,,0.00,Wunderground v.1.15,2013-05-13 16:24:00,
2013-05-13 11:27:00,61.1,34.6,30.09,SW,218,5.0,10.0,37,0.00,,,0.00,Wunderground v.1.15,2013-05-13 16:27:00,
2013-05-13 11:29:00,61.3,33.4,30.09,WSW,258,6.0,10.0,35,0.00,,,0.00,Wunderground v.1.15,2013-05-13 16:29:00,
2013-05-13 11:31:00,61.6,31.4,30.09,WNW,286,6.0,9.0,32,0.00,,,0.00,Wunderground v.1.15,2013-05-13 16:31:00,
2013-05-13 11:32:00,61.7,30.7,30.09,West,273,6.0,9.0,31,0.00,,,0.00,Wunderground v.1.15,2013-05-13 16:32:00,
2013-05-13 11:34:00,61.8,30.0,30.09,West,270,6.0,11.0,30,0.00,,,0.00,Wunderground v.1.15,2013-05-13 16:34:00,
2013-05-13 11:36:00,61.8,30.8,30.09,West,269,7.0,11.0,31,0.00,,,0.00,Wunderground v.1.15,2013-05-13 16:36:00,
2013-05-13 11:39:00,61.7,29.9,30.09,WNW,286,7.0,12.0,30,0.00,,,0.00,Wunderground v.1.15,2013-05-13 16:39:00,
2013-05-13 11:40:00,61.7,29.9,30.08,WNW,283,7.0,9.0,30,0.00,,,0.00,Wunderground v.1.15,2013-05-13 16:40:00,
2013-05-13 11:42:00,61.7,29.9,30.09,NW,312,7.0,15.0,30,0.00,,,0.00,Wunderground v.1.15,2013-05-13 16:42:00,
2013-05-13 11:43:00,61.6,29.8,30.08,WNW,296,8.0,15.0,30,0.00,,,0.00,Wunderground v.1.15,2013-05-13 16:43:00,
2013-05-13 11:45:00,61.6,29.0,30.08,WNW,284,8.0,15.0,29,0.00,,,0.00,Wunderground v.1.15,2013-05-13 16:45:00,
2013-05-13 11:47:00,61.6,29.8,30.08,NW,309,7.0,15.0,30,0.00,,,0.00,Wunderground v.1.15,2013-05-13 16:47:00,
2013-05-13 11:49:00,61.6,29.8,30.08,WNW,296,8.0,15.0,30,0.00,,,0.00,Wunderground v.1.15,2013-05-13 16:49:00,
2013-05-13 11:50:00,61.6,31.4,30.08,NW,305,8.0,11.0,32,0.00,,,0.00,Wunderground v.1.15,2013-05-13 16:50:00,
2013-05-13 11:51:00,61.7,30.7,30.08,West,281,8.0,11.0,31,0.00,,,0.00,Wunderground v.1.15,2013-05-13 16:51:00,
2013-05-13 11:56:00,61.8,30.8,30.08,WSW,255,7.0,11.0,31,0.00,,,0.00,Wunderground v.1.15,2013-05-13 16:56:00,
2013-05-13 11:57:00,61.8,30.8,30.08,West,259,8.0,11.0,31,0.00,,,0.00,Wunderground v.1.15,2013-05-13 16:57:00,
2013-05-13 11:58:00,61.9,31.7,30.08,WSW,258,7.0,11.0,32,0.00,,,0.00,Wunderground v.1.15,2013-05-13 16:58:00,
2013-05-13 11:59:00,61.9,30.9,30.08,WNW,283,7.0,11.0,31,0.00,,,0.00,Wunderground v.1.15,2013-05-13 16:59:00,
2013-05-13 12:02:00,62.0,30.2,30.08,WNW,290,8.0,13.0,30,0.00,,,0.00,Wunderground v.1.15,2013-05-13 17:02:00,
2013-05-13 12:03:00,62.0,31.8,30.08,WNW,297,8.0,13.0,32,0.00,,,0.00,Wunderground v.1.15,2013-05-13 17:03:00,
2013-05-13 12:06:00,62.0,31.0,30.08,NW,315,9.0,16.0,31,0.00,,,0.00,Wunderground v.1.15,2013-05-13 17:06:00,
2013-05-13 12:07:00,62.0,29.3,30.08,WNW,301,10.0,16.0,29,0.00,,,0.00,Wunderground v.1.15,2013-05-13 17:07:00,
2013-05-13 12:08:00,62.0,32.5,30.08,West,274,10.0,16.0,33,0.00,,,0.00,Wunderground v.1.15,2013-05-13 17:08:00,
2013-05-13 12:11:00,62.1,32.6,30.08,NW,311,9.0,9.0,33,0.00,,,0.00,Wunderground v.1.15,2013-05-13 17:11:00,
2013-05-13 12:13:00,62.3,31.3,30.08,West,277,9.0,10.0,31,0.00,,,0.00,Wunderground v.1.15,2013-05-13 17:13:00,
2013-05-13 12:14:00,62.4,32.1,30.08,WNW,292,8.0,10.0,32,0.00,,,0.00,Wunderground v.1.15,2013-05-13 17:14:00,
2013-05-13 12:18:00,62.5,31.4,30.07,West,281,6.0,10.0,31,0.00,,,0.00,Wunderground v.1.15,2013-05-13 17:18:00,
2013-05-13 12:19:00,62.5,32.2,30.07,WSW,246,6.0,10.0,32,0.00,,,0.00,Wunderground v.1.15,2013-05-13 17:19:00,
2013-05-13 12:20:00,62.5,31.4,30.07,West,274,6.0,8.0,31,0.00,,,0.00,Wunderground v.1.15,2013-05-13 17:20:00,
2013-05-13 12:21:00,62.6,33.1,30.07,West,275,5.0,8.0,33,0.00,,,0.00,Wunderground v.1.15,2013-05-13 17:21:00,
2013-05-13 12:24:00,62.7,30.0,30.07,West,264,5.0,9.0,29,0.00,,,0.00,Wunderground v.1.15,2013-05-13 17:24:00,
2013-05-13 12:26:00,62.8,34.0,30.07,NW,313,5.0,9.0,34,0.00,,,0.00,Wunderground v.1.15,2013-05-13 17:26:00,
2013-05-13 12:28:00,62.9,31.8,30.07,WNW,295,6.0,9.0,31,0.00,,,0.00,Wunderground v.1.15,2013-05-13 17:28:00,
2013-05-13 12:29:00,63.0,33.4,30.07,West,260,6.0,9.0,33,0.00,,,0.00,Wunderground v.1.15,2013-05-13 17:29:00,
2013-05-13 12:33:00,63.1,31.1,30.07,NW,304,5.0,11.0,30,0.00,,,0.00,Wunderground v.1.15,2013-05-13 17:33:00,
2013-05-13 12:35:00,63.1,31.9,30.06,WNW,294,6.0,11.0,31,0.00,,,0.00,Wunderground v.1.15,2013-05-13 17:35:00,
2013-05-13 12:36:00,63.1,31.1,30.06,NW,316,6.0,13.0,30,0.00,,,0.00,Wunderground v.1.15,2013-05-13 17:36:00,
2013-05-13 12:37:00,63.1,31.1,30.06,NW,315,7.0,16.0,30,0.00,,,0.00,Wunderground v.1.15,2013-05-13 17:37:00,
2013-05-13 12:39:00,63.2,30.4,30.06,NW,311,8.0,16.0,29,0.00,,,0.00,Wunderground v.1.15,2013-05-13 17:39:00,
2013-05-13 12:41:00,63.0,31.9,30.06,WNW,300,9.0,12.0,31,0.00,,,0.00,Wunderground v.1.15,2013-05-13 17:41:00,
2013-05-13 12:42:00,63.0,30.2,30.06,NW,306,9.0,12.0,29,0.00,,,0.00,Wunderground v.1.15,2013-05-13 17:42:00,
2013-05-13 12:43:00,62.9,31.0,30.06,NW,324,8.0,12.0,30,0.00,,,0.00,Wunderground v.1.15,2013-05-13 17:43:00,
2013-05-13 12:44:00,62.9,30.1,30.06,NNW,327,8.0,12.0,29,0.00,,,0.00,Wunderground v.1.15,2013-05-13 17:44:00,
2013-05-13 12:48:00,63.0,32.7,30.06,WNW,284,7.0,14.0,32,0.00,,,0.00,Wunderground v.1.15,2013-05-13 17:48:00,
2013-05-13 12:49:00,63.0,31.0,30.06,West,280,7.0,14.0,30,0.00,,,0.00,Wunderground v.1.15,2013-05-13 17:49:00,
2013-05-13 12:51:00,63.0,33.4,30.06,NW,312,7.0,17.0,33,0.00,,,0.00,Wunderground v.1.15,2013-05-13 17:51:00,
2013-05-13 12:53:00,63.4,31.4,30.06,NNW,329,9.0,17.0,30,0.00,,,0.00,Wunderground v.1.15,2013-05-13 17:53:00,
2013-05-13 12:55:00,63.4,31.4,30.06,NW,316,9.0,17.0,30,0.00,,,0.00,Wunderground v.1.15,2013-05-13 17:55:00,
2013-05-13 12:56:00,63.4,31.4,30.06,NW,319,10.0,17.0,30,0.00,,,0.00,Wunderground v.1.15,2013-05-13 17:56:00,
2013-05-13 12:57:00,63.4,29.7,30.06,NW,319,10.0,17.0,28,0.00,,,0.00,Wunderground v.1.15,2013-05-13 17:57:00,
2013-05-13 12:58:00,63.4,31.4,30.06,NW,323,9.0,17.0,30,0.00,,,0.00,Wunderground v.1.15,2013-05-13 17:58:00,
2013-05-13 13:01:00,63.4,30.6,30.05,WNW,294,8.0,9.0,29,0.00,,,0.00,Wunderground v.1.15,2013-05-13 18:01:00,
2013-05-13 13:03:00,63.5,35.3,30.05,WNW,294,7.0,9.0,35,0.00,,,0.00,Wunderground v.1.15,2013-05-13 18:03:00,
2013-05-13 13:04:00,63.7,35.5,30.05,NNW,336,6.0,9.0,35,0.00,,,0.00,Wunderground v.1.15,2013-05-13 18:04:00,
2013-05-13 13:05:00,63.9,31.8,30.05,WSW,244,4.0,9.0,30,0.00,,,0.00,Wunderground v.1.15,2013-05-13 18:05:00,
2013-05-13 13:09:00,64.5,33.2,30.05,West,281,5.0,9.0,31,0.00,,,0.00,Wunderground v.1.15,2013-05-13 18:09:00,
2013-05-13 13:10:00,64.6,32.4,30.05,West,263,5.0,6.0,30,0.00,,,0.00,Wunderground v.1.15,2013-05-13 18:10:00,
2013-05-13 13:11:00,64.7,30.8,30.05,West,260,6.0,7.0,28,0.00,,,0.00,Wunderground v.1.15,2013-05-13 18:11:00,
2013-05-13 13:12:00,64.6,29.8,30.05,WSW,249,6.0,7.0,27,0.00,,,0.00,Wunderground v.1.15,2013-05-13 18:12:00,